Location: Bluff Heights
(33.7692°N, 118.1592°W)
Time: 05:55:11
(UTC+00:00)

AO-73 - Pass Details

Date: 29 September 2021
Orbit: 580 x 662 km, 97.6° (Epoch: 27 October)

Event Time Altitude Azimuth Distance (km) Brightness Sun altitude
Rises 12:51:47 0° 4° (N) 2,836 ? -12.1°
Reaches altitude 10° 12:54:02 10° 358° (N) 1,921 ? -11.6°
Maximum altitude 12:57:59 44° 286° (WNW) 810 ? -10.8°
Drops below altitude 10° 13:01:52 10° 214° (SSW) 1,889 ? -10.0°
Sets 13:04:04 0° 207° (SSW) 2,782 ? -9.5°
